Location: Finnegan
(51.1333°N, 112.0833°W)
Time: 19:57:29
(UTC+00:00)

Envisat - Pass Details

Date: 11 December 2021
Orbit: 764 x 766 km, 98.2° (Epoch: 26 January)

Event Time Altitude Azimuth Distance (km) Brightness Sun altitude
Rises 00:47:54 0° 208° (SSW) 3,223 7.1 -12.7°
Reaches altitude 10° 00:50:51 10° 226° (SW) 2,302 6.6 -13.1°
Maximum altitude 00:54:26 19° 271° (W) 1,760 5.8 -13.7°
Drops below altitude 10° 00:58:02 10° 317° (NW) 2,315 5.8 -14.2°
Sets 01:01:02 0° 335° (NNW) 3,247 6.3 -14.6°
